Location: Rodanthe
(35.5920°N, 75.4670°W)
Time: 20:17:16
(UTC-04:00)

Daily predictions for brighter satellites

Satellite Brightness Start Highest point End
(mag) Time Altitude Azimuth Time Altitude Azimuth Time Altitude Azimuth
Cosmos 1707 4.1 20:51:48 10° SSW 20:55:31 43° W 20:59:16 10° N
Cosmos 2219 Rocket 2.6 20:50:56 10° NNW 20:56:35 68° WSW 21:02:10 10° S
Cosmos 2333 Rocket 2.3 20:52:53 10° NNW 20:58:34 82° WSW 21:04:11 10° SSE
Tiangong 1 2.2 20:56:55 10° W 20:59:35 40° NNW 21:02:15 10° NE
SAR-Lupe-4 4.4 20:58:51 10° SE 21:02:05 33° ENE 21:05:20 10° N
Aureole 2 Rocket 2.7 21:00:36 10° NNW 21:04:41 88° ENE 21:08:29 10° SSE
Cosmos 2221 3.7 21:04:53 10° NNE 21:08:35 26° ENE 21:11:47 12° SE
Envisat 3.0 21:03:39 10° SSE 21:08:44 90° SSW 21:13:50 10° NNW
Meteor 1-29 2.9 21:09:26 10° NNE 21:12:50 62° E 21:16:15 10° S
SL-8 R/B 3.7 21:11:00 10° NW 21:15:47 78° SW 21:19:48 14° SE
USA 186 3.5 21:15:33 10° SSW 21:17:30 21° W 21:19:22 10° NW
NOSS 0 Rocket 4.4 21:12:57 10° NNW 21:19:04 61° WSW 21:25:10 10° S
Cosmos 1140 Rocket 3.6 21:14:56 10° SSW 21:20:06 78° WNW 21:25:17 10° NNE
Cosmos 2082 4.4 21:14:46 10° SW 21:20:16 57° WNW 21:25:49 10° NNE
USA 32 4.0 21:15:20 10° S 21:20:32 69° E 21:25:45 10° N
SAR-Lupe-1 4.3 21:18:32 14° SSE 21:21:30 51° ENE 21:24:59 10° N
Cosmos 1242 Rocket 4.0 21:23:47 10° NNE 21:26:46 22° ENE 21:28:21 17° ESE
Cosmos 2297 Rocket 3.1 21:21:26 10° SW 21:26:56 53° WNW 21:32:28 10° NNE
Resurs 01 Rocket 3.8 21:24:18 10° SSW 21:27:48 23° W 21:31:20 10° NW
Cosmos 1939 Rocket 3.4 21:27:51 10° S 21:31:46 58° W 21:35:45 10° NNW
H-2A ROCKET BODY 3.2 21:30:47 10° S 21:35:19 15° ESE 21:38:21 10° E
Cosmos 1867 3.5 21:29:21 10° SSW 21:34:41 63° ESE 21:40:04 10° NE
Cosmos 2263 Rocket 4.1 21:40:06 11° E 21:40:06 11° E 21:40:56 10° E
Cosmos 2100 Rocket 4.3 21:34:38 10° N 21:40:48 54° E 21:45:23 19° SSE
Cosmos 1459 Rocket 4.3 21:34:46 10° N 21:40:51 49° E 21:45:04 19° SSE
Cosmos 2061 Rocket 4.5 21:35:28 10° N 21:41:33 45° E 21:45:44 20° SE
Cosmos 1340 Rocket 3.5 21:38:59 10° SSW 21:42:54 56° W 21:46:53 10° N
ATLAS 5 CENTAUR R/B 2.2 21:43:07 10° SW 21:47:40 63° NW 21:52:34 10° NNE
SPOT 5 3.4 21:49:06 24° SE 21:51:31 43° ENE 21:56:14 10° N
Cosmos 1850 Rocket 4.3 21:46:38 10° SSW 21:51:46 70° WNW 21:56:57 10° NNE
OAO 1 Rocket 4.4 21:46:53 10° WSW 21:52:14 69° SSE 21:57:05 12° E
YAOGAN 6 3.6 21:51:00 14° SSW 21:53:55 43° W 21:57:25 10° NNW
Cosmos 2173 Rocket 4.0 21:47:57 10° N 21:54:03 62° E 21:58:06 22° SSE
Cosmos 2084 3.7 21:50:02 10° SW 21:54:03 64° WNW 21:57:54 10° NNE
Lacrosse 5 3.7 21:51:38 10° NNW 21:55:28 21° NE 21:58:57 11° E
CZ-4B DEB 4.5 21:54:45 12° SSW 21:56:56 27° W 21:59:32 10° NW
Cosmos 1726 3.4 21:55:29 10° NNE 21:58:31 24° ENE 21:58:49 24° E
Cosmos 2237 Rocket 3.5 21:53:30 10° NW 21:58:32 35° WSW 22:03:33 10° SSW
USA 234 3.3 21:53:19 10° NE 21:59:53 88° NW 22:06:26 10° SW
CZ-3B R/B 4.1 21:59:32 10° WSW 22:02:15 65° NW 22:10:38 10° NE
H-2A R/B 2.7 22:00:47 26° ESE 22:03:08 41° ENE 22:08:10 10° N
ERS-1 Rocket 3.1 22:01:42 20° S 22:05:13 70° WSW 22:10:15 10° NNW
Atlas Centaur 2 2.0 22:03:41 10° WSW 22:06:40 29° SSW 22:06:40 29° SSW
Sakura Rocket 4.3 22:04:34 10° WSW 22:11:55 45° S 22:14:11 32° SE
Cosmos 1802 Rocket 3.9 22:06:34 10° N 22:12:42 76° E 22:16:08 28° SSE
Cosmos 1818 3.5 22:08:24 10° NNW 22:13:52 88° ENE 22:16:16 35° SSE
Cosmos 1725 Rocket 4.4 22:09:32 10° N 22:15:30 45° E 22:17:52 31° SE
Cosmos 1674 3.6 22:12:38 15° SSW 22:15:34 45° W 22:19:12 10° N
Cosmos 1908 3.7 22:14:43 10° NNW 22:18:32 58° W 22:20:02 33° SSW
Cosmos 220 Rocket 4.2 22:20:53 45° ESE 22:21:20 47° ESE 22:25:34 10° NNE
Landsat 7 4.4 22:20:56 35° ESE 22:22:04 41° ENE 22:26:32 10° N
SL-16 R/B 2.6 22:16:37 10° NNW 22:22:09 56° WSW 22:25:09 26° S
ARGOS 3.2 22:20:18 30° S 22:23:04 82° WSW 22:28:30 10° NNW
Cosmos 1408 Rocket 3.7 22:23:36 28° SSW 22:25:45 69° W 22:30:03 10° N
KORONAS-FOTON 4.4 22:24:13 27° SSW 22:26:03 53° W 22:29:47 10° N
Tiangong 1 3.5 22:33:34 10° NW 22:35:37 18° N 22:36:45 15° NNE
Terra 2.4 22:36:22 38° E 22:37:01 40° ENE 22:41:28 10° N
Cosmos 2058 4.0 22:38:51 32° ENE 22:38:51 32° ENE 22:41:57 10° NNE
DMSP B5D2-2 4.0 22:33:23 10° NNE 22:38:37 72° ESE 22:40:08 46° S
Cosmos 1864 Rocket 4.5 22:32:55 10° N 22:39:17 72° E 22:41:31 42° SSE
Meteor 1-11 4.4 22:40:38 45° SE 22:41:56 55° E 22:47:37 10° NNE
Cosmos 2016 Rocket 4.1 22:38:26 10° N 22:44:40 71° W 22:47:32 33° SSW
Cosmos 1500 Rocket 3.5 22:45:14 63° ESE 22:45:20 63° E 22:49:45 10° NNE
Cosmos 2151 3.1 22:54:01 61° ENE 22:54:01 61° ENE 22:57:55 10° NNE
Cosmos 332 Rocket 3.6 22:49:04 10° NNW 22:53:59 83° ENE 22:54:33 70° SE
ERBS 4.5 22:52:18 10° N 22:54:40 20° NE 22:54:40 20° NE
CARTOSAT-1 3.6 22:55:32 65° ENE 22:55:32 65° ENE 22:59:45 10° N
Cosmos 1814 Rocket 3.9 22:52:04 10° NNW 22:57:26 76° ENE 22:58:11 64° SE
SPOT 1/Viking Rocket 4.0 22:56:35 41° SSW 22:58:01 55° W 23:03:04 10° NNW
Cosmos 1486 Rocket 3.9 22:57:03 52° SSW 22:58:23 89° WNW 23:03:42 10° NNE
RESURS DK-1 2.4 22:55:25 10° NNW 22:59:21 79° NNW 22:59:21 79° NNW
Meteor 1-27 4.3 22:53:53 10° N 22:59:38 59° E 23:00:29 53° ESE
Cosmos 2233 Rocket 3.9 23:03:57 10° N 23:10:11 78° E 23:11:20 60° SSE
Cosmos 841 Rocket 3.6 23:05:48 10° N 23:10:59 60° ENE 23:11:13 59° E
Cosmos 1328 Rocket 4.2 23:08:31 10° NNW 23:12:41 47° W 23:12:50 46° W
Cosmos 2228 Rocket 3.6 23:09:43 10° NNW 23:14:11 52° W 23:14:28 51° WSW
Cosmos 1763 Rocket 3.2 23:09:20 10° NNW 23:14:27 85° ENE 23:14:35 83° ESE
Cosmos 1515 Rocket 3.8 23:11:59 10° NNW 23:16:02 61° WNW 23:16:02 61° WNW
H-2A R/B 2.2 23:17:20 70° N 23:17:20 70° N 23:21:10 10° NNW
Cosmos 2263 Rocket 2.1 23:21:43 60° SW 23:22:45 78° WNW 23:28:21 10° NNE
Cosmos 1626 3.5 23:25:42 38° N 23:25:42 38° N 23:28:10 10° N
Cosmos 1151 Rocket 3.4 23:20:58 10° NNW 23:24:51 60° WNW 23:24:51 60° WNW
Cosmos 1300 4.4 23:22:03 10° NNW 23:25:01 27° W 23:25:01 27° W
SL-19 R/B 4.5 23:24:18 10° N 23:29:34 63° WNW 23:30:50 49° SW
Lacrosse 5 2.2 23:33:48 10° NW 23:38:08 60° W 23:38:08 60° W
Meteor 2-12 Rocket 4.4 23:33:53 10° NNW 23:39:55 71° W 23:40:35 65° SW
H-2A R/B 3.9 23:41:24 20° WSW 23:42:39 21° W 23:46:42 10° NW
Cosmos 1503 Rocket 4.1 23:43:58 66° WNW 23:44:02 66° WNW 23:49:12 10° NNE
Cosmos 371 Rocket 4.4 23:40:22 10° NW 23:44:22 35° W 23:44:22 35° W
Cosmos 2285 Rocket 3.9 23:43:53 10° NNW 23:50:15 78° ENE 23:50:38 75° ESE
